{"data":{"norad_id":58240,"intl_designator":"2023-171L","name":"STARLINK-30848","alt_names":[],"object_type":"PAYLOAD","status":"ACTIVE","operator":null,"country":"US","launch_date":"2023-11-08","launch_site_code":"AFETR","launch_vehicle":null,"mission":null,"orbit_class":"UNKNOWN","rcs_meters":null,"size_class":null,"mass_kg":null,"dimensions":null,"purposes":["comms"],"wikipedia_slug":null,"has_3d_model":false,"image_url":null,"decayed_at":null,"tle_current":{"epoch":"2026-09-20T01:45:10.333728Z","epoch_age_seconds":180540,"freshness":"STALE","line1":"1 58240U 23171L   26263.07303627  .00000440  00000+0  25538-4 0  9994","line2":"2 58240  43.0044 267.3838 0001771 283.2791  76.7863 15.27574109159464","mean_motion":15.27574109,"eccentricity":0.0001771,"inclination_deg":43.0044,"raan_deg":267.3838,"arg_perigee_deg":283.2791,"mean_anomaly_deg":76.7863,"bstar":2.5538e-5,"rev_number":15946,"period_min":94.267112247842,"perigee_km":481.85161668799,"apogee_km":484.28185505124,"semimajor_km":6861.2037358696,"source":"CELESTRAK","updated_at":"2026-09-21T09:00:33.837966Z"}}}